Skip Page Navigation
NASA JPL Caltech
NASA Logo - Jet Propulsion Laboratory + View the NASA Portal
+ Center for Near-Earth Object Studies
JPL Home Earth Solar System Stars & Galaxies Technology
JPL Solar System Dynamics
BODIES ORBITS EPHEMERIDES TOOLS PHYSICAL DATA DISCOVERY FAQ SITE MAP
JPL Small-Body Database Browser
Search: [ help ]  
119248 Corbally (2001 RS10)
Classification: Main-belt Asteroid          SPK-ID: 2119248
Ephemeris | Orbit Diagram | Orbital Elements | Mission Design | Physical Parameters | Discovery Circumstances | Close-Approach Data ]

[ hide orbit diagram ]

For accurate long-term ephemerides, please instead use our Horizons system.This orbit viewer was implemented using two-body methods, and hence should not be used for determining accurate long-term trajectories (over several years or decades) or planetary encounter circumstances.


Orbital Elements at Epoch 2459396.5 (2021-Jul-01.0) TDB
Reference: JPL 12 (heliocentric ecliptic J2000)
 Element Value Uncertainty (1-sigma)   Units 
e .273991471165743 7.6815e-08  
a 2.45815811049474 2.4446e-08 au
q 1.784643753442283 1.7867e-07 au
i 7.951985447922143 7.4371e-06 deg
node 235.080786262341 4.1849e-05 deg
peri 128.3405747472206 4.7226e-05 deg
M 35.38790601036816 3.3483e-05 deg
tp 2459258.122489979212
(2021-Feb-12.62248998)
0.00012895 TDB
period 1407.709842817159
3.85
2.0999e-05
5.749e-08
d
yr
n .2557345193236379 3.8149e-09 deg/d
Q 3.131672467547197 3.1144e-08 au
  Orbit Determination Parameters
   # obs. used (total)      323  
   data-arc span      14741 days (40.36 yr)  
   first obs. used      1978-11-28  
   last obs. used      2019-04-08  
   planetary ephem.      DE441  
   SB-pert. ephem.      SB441-N16  
   condition code      0  
   norm. resid. RMS      .65912  
   source      ORB  
   producer      Otto Matic  
   solution date      2021-Apr-13 17:01:01  

Additional Information
 Earth MOID = .795365 au 
 Jupiter MOID = 2.39113 au 
 T_jup = 3.426 
[ show covariance matrix ]

Ephemeris | Orbit Diagram | Orbital Elements | Mission Design | Physical Parameters | Discovery Circumstances | Close-Approach Data ]

Physical Parameter Table
Parameter Symbol Value Units Sigma Reference Notes
absolute magnitude H 16.5   n/a MPO432695  

119248 Corbally           Discovered 2001 Sept. 10 by R. A. Tucker at at the Goodricke-Pigott Observatory, Tucson.
Christopher J. Corbally S.J. (b. 1946) was ordained in the Society of Jesus and earned a PhD in astronomy. He continues a long career in astronomy where his contributions have included areas of multiple stellar systems, stellar spectral classification, galactic structure, star formation and telescope technology.
NOTE: some special characters may not display properly (any characters within {} are an attempt to place the proper accent above a character)
Reference: MPC batch dated 2020-08-07Last Updated: 2020-08-24

[ show close-approach data ]
Alternate Designations
 2001 RS10 = 1978 WX20 
Ephemeris | Orbit Diagram | Orbital Elements | Mission Design | Physical Parameters | Discovery Circumstances | Close-Approach Data ]
ABOUT SSD CREDITS/AWARDS PRIVACY/COPYRIGHT GLOSSARY LINKS
FirstGov 2021-Aug-03 16:59 UT
(server date/time)  
NASA Home Page
Site Manager:   Ryan S. Park
Webmaster  Alan B. Chamberlin